Weather History for Preston, MN

Change the Weather History Date:

Friday, December 30, 2011

  Actual Average (KRST) Record (KRST)
Temperature  
Mean Temperature 30 °F 16 °F  
Max Temperature 31 °F 24 °F 52 °F (1890)
Min Temperature 27 °F 9 °F -28 °F (1887)
Degree Days  
Heating Degree Days 36 49  
Month to date heating degree days 1357  
Since 1 July heating degree days 3029  
Cooling Degree Days 0 0  
Month to date cooling degree days 0  
Year to date cooling degree days 585  
Moisture  
Dew Point 27 °F    
Average Humidity 89    
Maximum Humidity 93    
Minimum Humidity 86    
Precipitation  
Precipitation 0.17 in 0.03 in 0.23 in (1971)
Month to date precipitation 1.20  
Year to date precipitation 32.99  
Snow  
Snow 0.00 in 0.30 in 3.70 in (1971)
Month to date snowfall 12.1  
Since 1 July snowfall 19.0  
Snow Depth -    
Sea Level Pressure  
Sea Level Pressure 29.67 in    
Wind  
Wind Speed 7 mph (NNE)    
Max Wind Speed 10 mph    
Max Gust Speed -    
Visibility 4 miles    
Events Fog , Snow    
T = Trace of Precipitation, MM = Missing Value Source: NWS Daily Summary

Daily Weather History Graph

Daily Weather History Graph

Search for Another Location

Airport:

Trip Planner

Search our weather history database for the weather conditions in past years. The results will help you decide how hot, cold, wet, or windy it might be!

Date:

Astronomy

Dec. 30, 2011 Rise Set
Actual Time 7:42 AM CST 4:40 PM CST
Civil Twilight 7:09 AM CST 5:13 PM CST
Nautical Twilight 6:33 AM CST 5:49 PM CST
Astronomical Twilight 5:58 AM CST 6:24 PM CST
Moon 10:49 AM CST (12/30) 11:29 PM CST (12/30)
Length of Visible Light 10h 03m
Length of Day
8h 58m
Waxing Crescent, 36% of the Moon is Illuminated
Dec 30
Waxing Crescent
Jan 1
First Quarter
Jan 9
Full
Jan 16
Last Quarter
Jan 23
New

Hourly Weather History & Observations

Time (CST) Temp. Windchill Dew Point Humidity Pressure Visibility Wind Dir Wind Speed Gust Speed Precip Events Conditions
12:15 AM 30.0 °F 22.4 °F 26.6 °F 87% 29.60 in 5.0 mi East 8.1 mph - N/A   Overcast
12:35 AM 30.2 °F 22.6 °F 26.8 °F 87% 29.60 in 7.0 mi East 8.1 mph - N/A   Overcast
12:54 AM 30.2 °F 21.9 °F 26.8 °F 87% 29.60 in 7.0 mi East 9.2 mph - N/A   Overcast
1:14 AM 30.2 °F 23.4 °F 26.6 °F 86% 29.59 in 7.0 mi East 6.9 mph - N/A   Overcast
1:34 AM 30.2 °F 23.4 °F 27.0 °F 88% 29.59 in 7.0 mi ESE 6.9 mph - N/A   Overcast
1:55 AM 30.6 °F 23.1 °F 27.3 °F 88% 29.59 in 5.0 mi SE 8.1 mph - N/A   Overcast
2:14 AM 30.9 °F 23.5 °F 28.0 °F 89% 29.59 in 4.0 mi SE 8.1 mph - N/A   Overcast
2:34 AM 31.1 °F 23.7 °F 28.2 °F 89% 29.59 in 4.0 mi ESE 8.1 mph - 0.02 in   Overcast
2:54 AM 31.1 °F 23.1 °F 28.4 °F 90% 29.59 in 5.0 mi ESE 9.2 mph - 0.02 in   Overcast
3:55 AM 31.3 °F 24.7 °F 28.8 °F 90% 29.57 in 3.0 mi East 6.9 mph - 0.05 in   Overcast
4:14 AM 31.1 °F 25.4 °F 28.9 °F 92% 29.55 in 3.0 mi ENE 5.8 mph - 0.02 in   Overcast
4:34 AM 31.1 °F 24.5 °F 28.8 °F 91% 29.55 in 3.0 mi ENE 6.9 mph - 0.03 in   Overcast
4:54 AM 30.7 °F 24.9 °F 28.4 °F 91% 29.54 in 3.0 mi ENE 5.8 mph - 0.03 in   Overcast
5:14 AM 30.6 °F 25.8 °F 28.4 °F 92% 29.54 in 3.0 mi ENE 4.6 mph - N/A   Overcast
5:34 AM 30.6 °F 23.8 °F 28.4 °F 92% 29.54 in 4.0 mi ENE 6.9 mph - N/A   Overcast
5:54 AM 30.2 °F 22.6 °F 28.2 °F 92% 29.54 in 4.0 mi NE 8.1 mph - N/A   Overcast
6:14 AM 30.2 °F 22.6 °F 28.0 °F 92% 29.54 in 4.0 mi NE 8.1 mph - N/A   Overcast
6:34 AM 30.0 °F 22.4 °F 27.9 °F 92% 29.55 in 4.0 mi NE 8.1 mph - N/A   Overcast
6:55 AM 29.8 °F 23.0 °F 27.5 °F 91% 29.55 in 5.0 mi NE 6.9 mph - N/A   Overcast
7:14 AM 29.7 °F 21.3 °F 27.3 °F 91% 29.56 in 4.0 mi NE 9.2 mph - N/A   Overcast
7:34 AM 29.8 °F 22.2 °F 27.5 °F 91% 29.57 in 4.0 mi NE 8.1 mph - N/A   Overcast
7:55 AM 30.2 °F 24.3 °F 27.9 °F 91% 29.57 in 2.0 mi NE 5.8 mph - 0.02 in   Overcast
8:14 AM 30.2 °F 22.6 °F 28.0 °F 92% 29.58 in 1.8 mi NE 8.1 mph - 0.01 in   Overcast
8:35 AM 30.4 °F 24.5 °F 28.2 °F 92% 29.59 in 1.5 mi NNE 5.8 mph - 0.03 in Snow Light Snow
9:34 AM 30.2 °F 22.6 °F 28.2 °F 92% 29.60 in 1.8 mi North 8.1 mph - 0.01 in Snow Light Snow
9:54 AM 29.8 °F 23.0 °F 27.9 °F 92% 29.61 in 1.8 mi NNE 6.9 mph - 0.01 in Snow Light Snow
10:14 AM 29.3 °F 22.3 °F 27.5 °F 93% 29.61 in 2.0 mi NNE 6.9 mph - N/A Snow Light Snow
10:34 AM 29.3 °F 22.3 °F 27.5 °F 93% 29.61 in 2.0 mi North 6.9 mph - N/A Snow Light Snow
11:15 AM 29.8 °F 22.2 °F 27.5 °F 91% 29.61 in 2.0 mi North 8.1 mph - 0.01 in   Overcast
11:34 AM 29.5 °F 21.1 °F 27.5 °F 92% 29.61 in 2.5 mi North 9.2 mph - 0.01 in   Overcast
11:55 AM 29.8 °F 22.2 °F 27.5 °F 91% 29.61 in 3.0 mi North 8.1 mph - 0.01 in   Overcast
12:34 PM 30.0 °F 21.1 °F 27.5 °F 90% 29.62 in 1.2 mi North 10.4 mph - N/A Snow Light Snow
1:14 PM 31.1 °F 22.4 °F 28.4 °F 90% 29.62 in 2.5 mi North 10.4 mph - N/A   Overcast
1:34 PM 30.9 °F 22.2 °F 28.0 °F 89% 29.63 in 3.0 mi North 10.4 mph - N/A   Overcast
1:54 PM 30.6 °F 21.8 °F 27.9 °F 90% 29.63 in 3.0 mi North 10.4 mph - N/A   Overcast
2:14 PM 30.7 °F 22.6 °F 27.9 °F 89% 29.65 in 3.0 mi North 9.2 mph - N/A   Overcast
2:35 PM 30.9 °F 23.5 °F 27.7 °F 88% 29.66 in 4.0 mi North 8.1 mph - N/A   Overcast
2:54 PM 30.9 °F 23.5 °F 27.9 °F 88% 29.68 in 4.0 mi North 8.1 mph - N/A   Overcast
3:15 PM 30.9 °F 23.5 °F 28.0 °F 89% 29.68 in 4.0 mi North 8.1 mph - N/A   Overcast
3:35 PM 30.9 °F 25.2 °F 27.9 °F 88% 29.69 in 4.0 mi North 5.8 mph - N/A   Overcast
3:54 PM 30.9 °F 25.2 °F 27.5 °F 87% 29.71 in 5.0 mi North 5.8 mph - N/A   Overcast
4:14 PM 30.9 °F 26.2 °F 27.5 °F 87% 29.72 in 5.0 mi North 4.6 mph - N/A   Mostly Cloudy
4:34 PM 30.9 °F 26.2 °F 27.9 °F 88% 29.73 in 5.0 mi NNW 4.6 mph - N/A   Overcast
4:54 PM 30.9 °F 25.2 °F 27.7 °F 88% 29.74 in 5.0 mi NNW 5.8 mph - N/A   Overcast
5:14 PM 30.7 °F 24.9 °F 27.7 °F 88% 29.75 in 7.0 mi NW 5.8 mph - N/A   Overcast
5:34 PM 30.7 °F 24.9 °F 27.5 °F 88% 29.75 in 7.0 mi NNW 5.8 mph - N/A   Overcast
5:54 PM 30.4 °F 23.6 °F 26.8 °F 86% 29.76 in 7.0 mi NNW 6.9 mph - N/A   Overcast
6:14 PM 30.2 °F 24.3 °F 26.6 °F 86% 29.77 in 7.0 mi North 5.8 mph - N/A   Overcast
6:34 PM 30.2 °F 25.4 °F 26.6 °F 86% 29.78 in 7.0 mi North 4.6 mph - N/A   Overcast
6:54 PM 30.2 °F 24.3 °F 26.6 °F 86% 29.79 in 7.0 mi North 5.8 mph - N/A   Overcast
7:14 PM 30.2 °F 25.4 °F 26.6 °F 86% 29.80 in 7.0 mi North 4.6 mph - N/A   Overcast
7:34 PM 29.8 °F - 26.2 °F 86% 29.80 in 7.0 mi Calm Calm - N/A   Overcast
7:54 PM 29.8 °F 24.9 °F 26.1 °F 86% 29.81 in 7.0 mi North 4.6 mph - N/A   Overcast
8:15 PM 29.8 °F - 26.1 °F 86% 29.82 in 7.0 mi Calm Calm - N/A   Overcast
8:34 PM 29.8 °F 26.3 °F 26.2 °F 86% 29.83 in 7.0 mi West 3.5 mph - N/A   Overcast
8:54 PM 29.8 °F 26.3 °F 26.4 °F 87% 29.84 in 7.0 mi West 3.5 mph - N/A   Overcast
9:14 PM 30.0 °F 26.5 °F 26.6 °F 87% 29.84 in 7.0 mi West 3.5 mph - N/A   Overcast
9:34 PM 30.0 °F - 26.8 °F 88% 29.84 in 7.0 mi Calm Calm - N/A   Overcast
9:55 PM 30.0 °F - 26.6 °F 87% 29.84 in 7.0 mi Calm Calm - N/A   Overcast
10:14 PM 30.0 °F - 26.6 °F 87% 29.83 in 7.0 mi Calm Calm - N/A   Overcast
10:34 PM 30.0 °F - 26.6 °F 87% 29.82 in 7.0 mi Calm Calm - N/A   Mostly Cloudy
10:54 PM 29.3 °F - 26.4 °F 89% 29.82 in 5.0 mi Calm Calm - N/A   Scattered Clouds
11:14 PM 28.9 °F - 26.4 °F 90% 29.84 in 4.0 mi Calm Calm - N/A   Scattered Clouds
11:34 PM 28.8 °F - 26.6 °F 92% 29.84 in 3.0 mi Calm Calm - N/A   Clear
11:54 PM 27.0 °F 23.0 °F 25.0 °F 92% 29.82 in 0.2 mi SE 3.5 mph - N/A Fog Light Freezing Fog